MEXSAT 3

Last updated on Tue Sep 22 2026 00:03:12 GMT+0000 (Coordinated Universal Time)

1 39035U 12075B 26264.48993108 -.00000029 00000+0 00000+0 0 9997 2 39035 0.0235 103.2102 0001284 103.1440 215.6015 1.00268981 8013
UTC large
Height (km)
Speed (km/s)
/
Latitude / Longitude
Inclination (degrees)
Orbital Period (minutes)
Azimuth
Elevation
Range (km)
Doppler Factor

Next 0 passes for location: London (51.5072 / 0.1276)

No passes found over London.
MEXSAT 3